Weather History for Gwinner, ND

Change the Weather History Date:

Wednesday, November 21, 2012

  Actual Average (KP67) Record (KP67)
Temperature  
Mean Temperature 47 °F -  
Max Temperature 62 °F 22 °F 24 °F (1997)
Min Temperature 32 °F 7 °F -2 °F (1996)
Degree Days  
Heating Degree Days 18    
Moisture  
Dew Point 34 °F    
Average Humidity 75    
Maximum Humidity 100    
Minimum Humidity 37    
Precipitation  
Precipitation 0.00 in - - ()
Sea Level Pressure  
Sea Level Pressure 29.75 in    
Wind  
Wind Speed 9 mph (SSW)    
Max Wind Speed 14 mph    
Max Gust Speed -    
Visibility 10 miles    
Events      
Averages and records for this station are not official NWS values.
T = Trace of Precipitation, MM = Missing Value Source: NWS Daily Summary

Daily Weather History Graph

Daily Weather History Graph

Search for Another Location

Airport:

Trip Planner

Search our weather history database for the weather conditions in past years. The results will help you decide how hot, cold, wet, or windy it might be!

Date:

Astronomy

Nov. 21, 2012 Rise Set
Actual Time 7:40 AM CST 4:52 PM CST
Civil Twilight 7:07 AM CST 5:25 PM CST
Nautical Twilight 6:30 AM CST 6:02 PM CST
Astronomical Twilight 5:54 AM CST 6:37 PM CST
Moon 1:28 PM CST (11/21) 12:40 AM CST (11/21)
Length of Visible Light 10h 17m
Length of Day
9h 11m
First Quarter, 62% of the Moon is Illuminated
Nov 21
First Quarter
Nov 28
Full
Dec 6
Last Quarter
Dec 13
New
Dec 19
First Quarter

Hourly Weather History & Observations

Time (CST) Temp. Windchill Dew Point Humidity Pressure Visibility Wind Dir Wind Speed Gust Speed Precip Events Conditions
12:15 AM 33.8 °F 26.4 °F 32.0 °F 93% 29.90 in 10.0 mi WSW 9.2 mph - 0.00 in   Clear
12:35 AM 33.8 °F 26.4 °F 32.0 °F 93% 29.90 in 10.0 mi SW 9.2 mph - 0.00 in   Clear
12:55 AM 32.0 °F 24.8 °F 32.0 °F 100% 29.89 in 10.0 mi SW 8.1 mph - 0.00 in   Clear
1:15 AM 33.8 °F 26.4 °F 33.8 °F 100% 29.89 in 10.0 mi SSW 9.2 mph - 0.00 in   Clear
1:35 AM 33.8 °F 25.3 °F 33.8 °F 100% 29.89 in 10.0 mi SW 11.5 mph - 0.00 in   Clear
1:55 AM 35.6 °F 29.2 °F 33.8 °F 93% 29.89 in 10.0 mi SW 8.1 mph - 0.00 in   Clear
2:15 AM 35.6 °F 29.9 °F 33.8 °F 93% 29.88 in 10.0 mi SW 6.9 mph - 0.00 in   Clear
2:35 AM 33.8 °F 26.4 °F 32.0 °F 93% 29.89 in 10.0 mi WSW 9.2 mph - 0.00 in   Clear
2:55 AM 33.8 °F 26.4 °F 33.8 °F 100% 29.89 in 10.0 mi SW 9.2 mph - 0.00 in   Clear
3:15 AM 33.8 °F 27.7 °F 33.8 °F 100% 29.90 in 10.0 mi WSW 6.9 mph - 0.00 in   Clear
3:35 AM 32.0 °F 23.0 °F 32.0 °F 100% 29.89 in 10.0 mi WSW 11.5 mph - 0.00 in   Clear
3:55 AM 33.8 °F 25.8 °F 32.0 °F 93% 29.90 in 10.0 mi SW 10.4 mph - 0.00 in   Clear
4:15 AM 33.8 °F 27.0 °F 33.8 °F 100% 29.89 in 10.0 mi SW 8.1 mph - 0.00 in   Clear
4:35 AM 32.0 °F 24.8 °F 32.0 °F 100% 29.88 in 10.0 mi SW 8.1 mph - 0.00 in   Clear
4:55 AM 32.0 °F 24.8 °F 32.0 °F 100% 29.87 in 10.0 mi SW 8.1 mph - 0.00 in   Clear
5:15 AM 32.0 °F 23.6 °F 32.0 °F 100% 29.88 in 10.0 mi SW 10.4 mph - 0.00 in   Clear
5:35 AM 33.8 °F 27.7 °F 33.8 °F 100% 29.88 in 10.0 mi SW 6.9 mph - 0.00 in   Clear
5:55 AM 33.8 °F 27.7 °F 33.8 °F 100% 29.87 in 10.0 mi SW 6.9 mph - 0.00 in   Clear
6:15 AM 33.8 °F 28.6 °F 33.8 °F 100% 29.87 in 10.0 mi WSW 5.8 mph - 0.00 in   Clear
6:35 AM 33.8 °F 24.8 °F 33.8 °F 100% 29.88 in 10.0 mi WSW 12.7 mph - 0.00 in   Clear
6:55 AM 33.8 °F 25.8 °F 33.8 °F 100% 29.87 in 10.0 mi WSW 10.4 mph - 0.00 in   Clear
7:15 AM 33.8 °F 25.8 °F 33.8 °F 100% 29.87 in 10.0 mi WSW 10.4 mph - 0.00 in   Clear
7:35 AM 33.8 °F 25.3 °F 33.8 °F 100% 29.87 in 10.0 mi SW 11.5 mph - 0.00 in   Clear
7:55 AM 33.8 °F 27.7 °F 33.8 °F 100% 29.87 in 10.0 mi WSW 6.9 mph - 0.00 in   Clear
8:15 AM 33.8 °F 27.0 °F 33.8 °F 100% 29.87 in 10.0 mi WSW 8.1 mph - 0.00 in   Clear
8:35 AM 35.6 °F 29.9 °F 33.8 °F 93% 29.86 in 10.0 mi SW 6.9 mph - 0.00 in   Clear
8:55 AM 37.4 °F 32.8 °F 35.6 °F 93% 29.86 in 10.0 mi SW 5.8 mph - 0.00 in   Clear
9:15 AM 39.2 °F 33.0 °F 35.6 °F 87% 29.85 in 10.0 mi SW 9.2 mph - 0.00 in   Clear
9:35 AM 42.8 °F 38.6 °F 35.6 °F 76% 29.86 in 10.0 mi SW 6.9 mph - 0.00 in   Clear
9:55 AM 42.8 °F 39.3 °F 35.6 °F 76% 29.85 in 10.0 mi SW 5.8 mph - 0.00 in   Clear
10:15 AM 44.6 °F 42.2 °F 35.6 °F 71% 29.84 in 10.0 mi SSW 4.6 mph - 0.00 in   Clear
10:35 AM 48.2 °F - 35.6 °F 62% 29.84 in 10.0 mi SSW 5.8 mph - 0.00 in   Clear
10:55 AM 51.8 °F - 35.6 °F 54% 29.84 in 10.0 mi South 6.9 mph - 0.00 in   Clear
11:15 AM 51.8 °F - 35.6 °F 54% 29.83 in 10.0 mi SSE 5.8 mph - 0.00 in   Clear
11:35 AM 53.6 °F - 35.6 °F 51% 29.81 in 10.0 mi ESE 5.8 mph - 0.00 in   Clear
11:55 AM 55.4 °F - 35.6 °F 47% 29.79 in 10.0 mi ESE 8.1 mph - 0.00 in   Clear
12:15 PM 57.2 °F - 35.6 °F 44% 29.77 in 10.0 mi ESE 9.2 mph - 0.00 in   Clear
12:35 PM 59.0 °F - 35.6 °F 42% 29.75 in 10.0 mi ESE 10.4 mph - 0.00 in   Clear
12:55 PM 57.2 °F - 37.4 °F 48% 29.74 in 10.0 mi ESE 10.4 mph - 0.00 in   Clear
1:15 PM 60.8 °F - 37.4 °F 42% 29.73 in 10.0 mi ESE 10.4 mph - 0.00 in   Clear
1:55 PM 62.6 °F - 35.6 °F 37% 29.70 in 10.0 mi ESE 11.5 mph - 0.00 in   Clear
2:15 PM 62.6 °F - 35.6 °F 37% 29.69 in 10.0 mi SE 13.8 mph - 0.00 in   Clear
2:35 PM 62.6 °F - 37.4 °F 39% 29.68 in 10.0 mi ESE 11.5 mph - 0.00 in   Clear
2:55 PM 62.6 °F - 35.6 °F 37% 29.67 in 10.0 mi SE 13.8 mph - 0.00 in   Clear
3:15 PM 62.6 °F - 35.6 °F 37% 29.67 in 8.0 mi SE 11.5 mph - 0.00 in   Clear
3:35 PM 60.8 °F - 35.6 °F 39% 29.66 in 10.0 mi SE 11.5 mph - 0.00 in   Clear
3:55 PM 60.8 °F - 35.6 °F 39% 29.65 in 10.0 mi SE 10.4 mph - 0.00 in   Clear
4:15 PM 57.2 °F - 35.6 °F 44% 29.64 in 10.0 mi SE 8.1 mph - 0.00 in   Clear
4:35 PM 53.6 °F - 35.6 °F 51% 29.65 in 10.0 mi SSE 6.9 mph - 0.00 in   Clear
4:55 PM 50.0 °F - 33.8 °F 54% 29.65 in 10.0 mi SSE 8.1 mph - 0.00 in   Clear
5:15 PM 50.0 °F - 35.6 °F 58% 29.65 in 10.0 mi South 9.2 mph - 0.00 in   Clear
5:35 PM 46.4 °F 41.9 °F 33.8 °F 62% 29.63 in 10.0 mi SSE 9.2 mph - 0.00 in   Clear
5:55 PM 46.4 °F 41.1 °F 35.6 °F 66% 29.62 in 10.0 mi SSE 11.5 mph - 0.00 in   Clear
6:15 PM 44.6 °F 39.7 °F 33.8 °F 66% 29.60 in 10.0 mi SE 9.2 mph - 0.00 in   Clear
6:35 PM 42.8 °F 39.3 °F 33.8 °F 70% 29.60 in 10.0 mi SSE 5.8 mph - 0.00 in   Clear
6:55 PM 42.8 °F 39.3 °F 33.8 °F 70% 29.60 in 10.0 mi South 5.8 mph - 0.00 in   Clear
7:15 PM 42.8 °F 40.1 °F 33.8 °F 70% 29.59 in 10.0 mi SSW 4.6 mph - 0.00 in   Clear
7:35 PM 42.8 °F 39.3 °F 33.8 °F 70% 29.58 in 10.0 mi South 5.8 mph - 0.00 in   Clear
7:55 PM 42.8 °F 38.6 °F 32.0 °F 66% 29.57 in 10.0 mi SSW 6.9 mph - 0.00 in   Clear
8:15 PM 39.2 °F 33.0 °F 32.0 °F 75% 29.57 in 10.0 mi SSW 9.2 mph - 0.00 in   Clear
8:35 PM 39.2 °F 32.5 °F 32.0 °F 75% 29.57 in 10.0 mi SW 10.4 mph - 0.00 in   Clear
8:55 PM 37.4 °F 30.3 °F 32.0 °F 81% 29.56 in 10.0 mi SW 10.4 mph - 0.00 in   Clear
9:15 PM 39.2 °F 31.6 °F 33.8 °F 81% 29.56 in 10.0 mi WSW 12.7 mph - 0.00 in   Clear
9:35 PM 39.2 °F 33.6 °F 33.8 °F 81% 29.56 in 10.0 mi SW 8.1 mph - 0.00 in   Clear
9:55 PM 39.2 °F 32.5 °F 33.8 °F 81% 29.56 in 10.0 mi SW 10.4 mph - 0.00 in   Clear
10:15 PM 39.2 °F 32.0 °F 33.8 °F 81% 29.56 in 10.0 mi WSW 11.5 mph - 0.00 in   Clear
10:35 PM 39.2 °F 32.5 °F 32.0 °F 75% 29.56 in 10.0 mi WSW 10.4 mph - 0.00 in   Clear
10:55 PM 39.2 °F 32.5 °F 32.0 °F 75% 29.56 in 10.0 mi WSW 10.4 mph - 0.00 in   Clear
11:15 PM 39.2 °F 33.0 °F 32.0 °F 75% 29.55 in 10.0 mi SW 9.2 mph - 0.00 in   Clear
11:35 PM 37.4 °F 32.1 °F 32.0 °F 81% 29.55 in 10.0 mi SW 6.9 mph - 0.00 in   Clear
11:55 PM 37.4 °F 32.1 °F 32.0 °F 81% 29.55 in 10.0 mi SSW 6.9 mph - 0.00 in   Clear